Location: Tom
(33.0437°N, 96.9452°W)
Time: 17:09:28
(UTC-05:00)

N. Korean satellite - Visible Passes

Search period start: 18 October 2019 00:00
Search period end: 28 October 2019 00:00
Orbit: 455 x 508 km, 97.2° (Epoch: 18 October)

Date Brightness Start Highest point End Pass type
(mag) Time Alt. Az. Time Alt. Az. Time Alt. Az.
18 Oct 7.9 07:00:19 10° NNE 07:03:48 45° E 07:07:19 10° S visible
19 Oct 9.6 06:35:41 10° NE 06:38:27 20° E 06:41:14 10° SE visible
21 Oct 9.6 19:23:02 10° SSW 19:25:39 21° W 19:28:20 10° NW visible
22 Oct 8.5 06:52:36 10° NNE 06:56:00 35° E 06:59:24 10° SSE visible
23 Oct 10.0 06:28:13 10° NE 06:30:37 16° E 06:33:00 10° SE visible
24 Oct 10.3 19:41:49 10° WSW 19:43:12 12° W 19:44:35 10° WNW visible
25 Oct 7.1 07:09:49 10° NNE 07:13:28 66° E 07:17:09 10° S visible
25 Oct 9.1 19:14:49 10° SSW 19:17:45 27° W 19:20:44 10° NW visible
26 Oct 9.0 06:44:55 10° NE 06:48:08 28° E 06:51:21 10° SSE visible
27 Oct 10.2 06:20:54 10° ENE 06:22:42 13° E 06:24:31 10° ESE visible
